TAM3220 SBSP-SBFI

Flight info

Callsign TAM3220
Flight time 1h 21m
Altitude 34000
Route ASETA UZ152 UPORU
Aircraft A320/M-SDE3FGHIRWY/LB1

Departure

Time 2026-04-26 01:12
Airport Congonhas–Deputado Freitas Nobre Airport (SBSP)

Arrival

Time 2026-04-26 02:34
Airport Cataratas International Airport (SBFI)
Time Latitude Longitude Altitude Speed Heading
2026-04-26 00:46 -23.62511 -46.65966 2600 ft 0 kts 237°
2026-04-26 01:03 -23.62504 -46.65955 2600 ft 4 kts 229°
2026-04-26 01:03 -23.62484 -46.65939 2600 ft 4 kts 186°
2026-04-26 01:04 -23.62466 -46.65942 2600 ft 0 kts 147°
2026-04-26 01:07 -23.62467 -46.65941 2600 ft 1 kts 147°
2026-04-26 01:07 -23.62474 -46.65936 2600 ft 2 kts 145°
2026-04-26 01:07 -23.62485 -46.65926 2601 ft 3 kts 135°
2026-04-26 01:07 -23.62520 -46.65889 2601 ft 9 kts 135°
2026-04-26 01:08 -23.62566 -46.65838 2601 ft 10 kts 135°
2026-04-26 01:08 -23.62617 -46.65789 2602 ft 10 kts 143°
2026-04-26 01:08 -23.62680 -46.65745 2602 ft 11 kts 148°
2026-04-26 01:08 -23.62748 -46.65698 2602 ft 12 kts 147°
2026-04-26 01:09 -23.62820 -46.65649 2603 ft 13 kts 147°
2026-04-26 01:09 -23.62917 -46.65582 2603 ft 20 kts 148°
2026-04-26 01:09 -23.63042 -46.65518 2602 ft 20 kts 186°
2026-04-26 01:09 -23.63124 -46.65482 2602 ft 13 kts 150°
2026-04-26 01:10 -23.63196 -46.65423 2602 ft 14 kts 142°
2026-04-26 01:10 -23.63272 -46.65358 2603 ft 14 kts 142°
2026-04-26 01:10 -23.63359 -46.65314 2602 ft 14 kts 147°
2026-04-26 01:10 -23.63402 -46.65231 2603 ft 13 kts 49°
2026-04-26 01:11 -23.63392 -46.65222 2604 ft 0 kts 39°
2026-04-26 01:11 -23.63346 -46.65204 2607 ft 11 kts
2026-04-26 01:11 -23.63277 -46.65223 2609 ft 10 kts 331°
2026-04-26 01:12 -23.63175 -46.65291 2610 ft 49 kts 328°
2026-04-26 01:12 -23.62657 -46.65650 2606 ft 124 kts 327°
2026-04-26 01:12 -23.61779 -46.66264 2800 ft 162 kts 327°
2026-04-26 01:12 -23.60823 -46.66953 3532 ft 169 kts 326°
2026-04-26 01:13 -23.59840 -46.67715 4099 ft 184 kts 314°
2026-04-26 01:13 -23.59221 -46.68963 4515 ft 193 kts 282°
2026-04-26 01:13 -23.58965 -46.70463 4695 ft 213 kts 283°
2026-04-26 01:13 -23.58560 -46.72094 4928 ft 235 kts 286°
2026-04-26 01:14 -23.58077 -46.73844 5421 ft 244 kts 286°
2026-04-26 01:14 -23.57581 -46.75623 6082 ft 249 kts 283°
2026-04-26 01:14 -23.57600 -46.77545 6512 ft 264 kts 250°
2026-04-26 01:14 -23.58631 -46.79189 7105 ft 272 kts 226°
2026-04-26 01:15 -23.59954 -46.80695 7405 ft 276 kts 227°
2026-04-26 01:15 -23.61289 -46.82236 7480 ft 276 kts 229°
2026-04-26 01:15 -23.62501 -46.83817 7485 ft 275 kts 229°
2026-04-26 01:15 -23.63976 -46.85158 7581 ft 281 kts 210°
2026-04-26 01:16 -23.65716 -46.86140 8346 ft 282 kts 208°
2026-04-26 01:16 -23.67479 -46.87096 9155 ft 284 kts 207°
2026-04-26 01:16 -23.69263 -46.88044 9858 ft 286 kts 207°
2026-04-26 01:16 -23.71077 -46.88998 10374 ft 297 kts 207°
2026-04-26 01:17 -23.72931 -46.90159 10518 ft 318 kts 219°
2026-04-26 01:17 -23.74513 -46.91929 10786 ft 333 kts 236°
2026-04-26 01:17 -23.75570 -46.94184 11322 ft 337 kts 252°
2026-04-26 01:17 -23.75984 -46.96711 11950 ft 341 kts 268°
2026-04-26 01:18 -23.75777 -46.99299 12591 ft 344 kts 276°
2026-04-26 01:18 -23.75460 -47.01894 13240 ft 346 kts 276°
2026-04-26 01:18 -23.75136 -47.04515 13872 ft 349 kts 276°
2026-04-26 01:18 -23.74789 -47.07144 14417 ft 352 kts 281°
2026-04-26 01:19 -23.73952 -47.09656 14979 ft 356 kts 297°
2026-04-26 01:19 -23.72435 -47.11806 15512 ft 362 kts 314°
2026-04-26 01:19 -23.70344 -47.13370 16024 ft 370 kts 332°
2026-04-26 01:19 -23.67860 -47.14192 16563 ft 377 kts 345°
2026-04-26 01:20 -23.65285 -47.14752 17106 ft 379 kts 345°
2026-04-26 01:20 -23.62684 -47.15316 17646 ft 381 kts 344°
2026-04-26 01:20 -23.60081 -47.15882 18161 ft 383 kts 344°
2026-04-26 01:20 -23.57459 -47.16455 18634 ft 385 kts 344°
2026-04-26 01:21 -23.54823 -47.17034 19066 ft 388 kts 343°
2026-04-26 01:21 -23.52166 -47.17617 19493 ft 391 kts 344°
2026-04-26 01:21 -23.49489 -47.18204 19913 ft 394 kts 344°
2026-04-26 01:21 -23.46793 -47.18797 20345 ft 397 kts 344°
2026-04-26 01:22 -23.44081 -47.19394 20770 ft 399 kts 344°
2026-04-26 01:22 -23.41346 -47.19995 21196 ft 402 kts 344°
2026-04-26 01:22 -23.38587 -47.20599 21608 ft 406 kts 344°
2026-04-26 01:22 -23.35812 -47.21207 22006 ft 408 kts 344°
2026-04-26 01:23 -23.33075 -47.22005 22381 ft 406 kts 334°
2026-04-26 01:23 -23.30605 -47.23445 22756 ft 402 kts 320°
2026-04-26 01:23 -23.28547 -47.25473 23082 ft 399 kts 307°
2026-04-26 01:23 -23.27008 -47.27974 23424 ft 398 kts 294°
2026-04-26 01:24 -23.26047 -47.30789 23739 ft 398 kts 284°
2026-04-26 01:24 -23.25299 -47.33691 24052 ft 400 kts 284°
2026-04-26 01:24 -23.24545 -47.36602 24377 ft 401 kts 284°
2026-04-26 01:24 -23.23781 -47.39523 24715 ft 402 kts 284°
2026-04-26 01:25 -23.23013 -47.42442 25049 ft 402 kts 284°
2026-04-26 01:25 -23.22242 -47.45374 25372 ft 403 kts 284°
2026-04-26 01:25 -23.21468 -47.48307 25684 ft 404 kts 284°
2026-04-26 01:25 -23.20693 -47.51246 26001 ft 405 kts 284°
2026-04-26 01:26 -23.19914 -47.54199 26301 ft 406 kts 284°
2026-04-26 01:26 -23.19136 -47.57154 26608 ft 407 kts 284°
2026-04-26 01:26 -23.18426 -47.60137 26910 ft 407 kts 279°
2026-04-26 01:26 -23.18180 -47.63200 27184 ft 408 kts 269°
2026-04-26 01:27 -23.18463 -47.66231 27451 ft 410 kts 259°
2026-04-26 01:27 -23.19157 -47.69286 27732 ft 412 kts 257°
2026-04-26 01:27 -23.19872 -47.72308 28020 ft 413 kts 257°
2026-04-26 01:27 -23.20577 -47.75296 28316 ft 414 kts 257°
2026-04-26 01:28 -23.21291 -47.78338 28614 ft 416 kts 257°
2026-04-26 01:28 -23.22006 -47.81388 28929 ft 417 kts 257°
2026-04-26 01:28 -23.22719 -47.84446 29240 ft 418 kts 257°
2026-04-26 01:28 -23.23429 -47.87499 29676 ft 415 kts 257°
2026-04-26 01:29 -23.24138 -47.90535 30120 ft 413 kts 257°
2026-04-26 01:29 -23.24842 -47.93558 30487 ft 412 kts 257°
2026-04-26 01:29 -23.25545 -47.96570 30863 ft 410 kts 257°
2026-04-26 01:29 -23.26255 -47.99611 31239 ft 409 kts 257°
2026-04-26 01:30 -23.26953 -48.02607 31612 ft 408 kts 257°
2026-04-26 01:30 -23.27648 -48.05588 32016 ft 406 kts 257°
2026-04-26 01:30 -23.28338 -48.08557 32419 ft 404 kts 257°
2026-04-26 01:30 -23.28867 -48.11542 32811 ft 402 kts 261°
2026-04-26 01:31 -23.29305 -48.14541 33211 ft 400 kts 261°
2026-04-26 01:31 -23.29744 -48.17526 33616 ft 399 kts 261°
2026-04-26 01:31 -23.30182 -48.20501 33936 ft 398 kts 261°
2026-04-26 01:31 -23.30622 -48.23484 34006 ft 401 kts 261°
2026-04-26 01:32 -23.31504 -48.29520 34008 ft 405 kts 261°
2026-04-26 01:32 -23.32374 -48.35536 34013 ft 406 kts 261°
2026-04-26 01:33 -23.33380 -48.41571 34016 ft 406 kts 254°
2026-04-26 01:33 -23.35428 -48.47303 34009 ft 406 kts 250°
2026-04-26 01:34 -23.37542 -48.52999 34017 ft 406 kts 250°
2026-04-26 01:34 -23.39649 -48.58700 34014 ft 406 kts 250°
2026-04-26 01:35 -23.41757 -48.64399 34010 ft 406 kts 250°
2026-04-26 01:35 -23.43859 -48.70101 34021 ft 406 kts 250°
2026-04-26 01:36 -23.45964 -48.75799 34019 ft 406 kts 250°
2026-04-26 01:37 -23.49123 -48.84349 34020 ft 405 kts 250°
2026-04-26 01:37 -23.51214 -48.90050 34016 ft 405 kts 250°
2026-04-26 01:38 -23.53301 -48.95742 34016 ft 405 kts 250°
2026-04-26 01:38 -23.55387 -49.01440 34016 ft 405 kts 250°
2026-04-26 01:39 -23.57475 -49.07138 34012 ft 405 kts 250°
2026-04-26 01:39 -23.59568 -49.12836 34020 ft 405 kts 250°
2026-04-26 01:40 -23.61648 -49.18538 34017 ft 405 kts 250°
2026-04-26 01:40 -23.63725 -49.24238 34014 ft 404 kts 250°
2026-04-26 01:41 -23.65802 -49.29932 34015 ft 404 kts 250°
2026-04-26 01:41 -23.67880 -49.35627 34001 ft 404 kts 251°
2026-04-26 01:42 -23.69947 -49.41313 34003 ft 403 kts 251°
2026-04-26 01:42 -23.71662 -49.46045 34003 ft 403 kts 251°
2026-04-26 01:43 -23.74057 -49.52658 34015 ft 403 kts 251°
2026-04-26 01:43 -23.76114 -49.58353 34018 ft 403 kts 251°
2026-04-26 01:44 -23.77827 -49.63120 34012 ft 403 kts 251°
2026-04-26 01:44 -23.79876 -49.68807 34010 ft 403 kts 251°
2026-04-26 01:45 -23.81921 -49.74494 34003 ft 402 kts 251°
2026-04-26 01:45 -23.83953 -49.80142 34008 ft 402 kts 251°
2026-04-26 01:46 -23.85996 -49.85830 34012 ft 402 kts 251°
2026-04-26 01:46 -23.88031 -49.91521 34014 ft 402 kts 251°
2026-04-26 01:47 -23.90065 -49.97210 34016 ft 402 kts 251°
2026-04-26 01:47 -23.92108 -50.02942 34012 ft 402 kts 251°
2026-04-26 01:48 -23.94140 -50.08639 34018 ft 402 kts 251°
2026-04-26 01:48 -23.96166 -50.14334 34016 ft 402 kts 251°
2026-04-26 01:49 -23.98190 -50.20029 34026 ft 402 kts 251°
2026-04-26 01:49 -24.00197 -50.25694 34021 ft 402 kts 252°
2026-04-26 01:50 -24.02217 -50.31388 34021 ft 402 kts 252°
2026-04-26 01:50 -24.04235 -50.37091 34017 ft 402 kts 252°
2026-04-26 01:51 -24.06239 -50.42791 34020 ft 402 kts 252°
2026-04-26 01:51 -24.08242 -50.48506 34031 ft 402 kts 252°
2026-04-26 01:52 -24.10248 -50.54206 34016 ft 401 kts 252°
2026-04-26 01:52 -24.12257 -50.59906 34017 ft 401 kts 252°
2026-04-26 01:53 -24.14263 -50.65612 34020 ft 401 kts 252°
2026-04-26 01:53 -24.16257 -50.71316 34017 ft 401 kts 252°
2026-04-26 01:54 -24.18253 -50.77024 34015 ft 401 kts 252°
2026-04-26 01:54 -24.20249 -50.82735 34016 ft 401 kts 252°
2026-04-26 01:55 -24.22243 -50.88452 34019 ft 402 kts 253°
2026-04-26 01:55 -24.24230 -50.94165 34016 ft 402 kts 253°
2026-04-26 01:56 -24.26218 -50.99884 34012 ft 402 kts 252°
2026-04-26 01:56 -24.28215 -51.05616 34023 ft 402 kts 253°
2026-04-26 01:57 -24.30202 -51.11337 34018 ft 401 kts 253°
2026-04-26 01:57 -24.32007 -51.16569 34016 ft 401 kts 253°
2026-04-26 01:58 -24.33974 -51.22287 34015 ft 401 kts 253°
2026-04-26 01:58 -24.35947 -51.28011 34013 ft 401 kts 253°
2026-04-26 01:59 -24.37920 -51.33731 34019 ft 401 kts 253°
2026-04-26 01:59 -24.39884 -51.39455 34012 ft 401 kts 253°
2026-04-26 02:00 -24.41843 -51.45176 34008 ft 401 kts 253°
2026-04-26 02:00 -24.43805 -51.50902 34008 ft 401 kts 253°
2026-04-26 02:01 -24.45772 -51.56629 34007 ft 401 kts 253°
2026-04-26 02:01 -24.47732 -51.62355 34013 ft 401 kts 254°
2026-04-26 02:02 -24.49690 -51.68091 34013 ft 401 kts 254°
2026-04-26 02:02 -24.51646 -51.73826 34016 ft 401 kts 254°
2026-04-26 02:03 -24.53598 -51.79561 34014 ft 401 kts 254°
2026-04-26 02:03 -24.55541 -51.85294 34018 ft 401 kts 254°
2026-04-26 02:04 -24.57466 -51.90992 34016 ft 400 kts 254°
2026-04-26 02:04 -24.59401 -51.96719 34015 ft 400 kts 254°
2026-04-26 02:05 -24.61336 -52.02447 34015 ft 400 kts 254°
2026-04-26 02:05 -24.63274 -52.08175 34025 ft 399 kts 254°
2026-04-26 02:06 -24.65201 -52.13884 34018 ft 398 kts 254°
2026-04-26 02:06 -24.67117 -52.19599 34018 ft 398 kts 255°
2026-04-26 02:07 -24.69031 -52.25305 34015 ft 398 kts 255°
2026-04-26 02:07 -24.70940 -52.31001 34008 ft 397 kts 255°
2026-04-26 02:08 -24.72851 -52.36706 34008 ft 397 kts 255°
2026-04-26 02:08 -24.74753 -52.42403 34002 ft 397 kts 255°
2026-04-26 02:09 -24.76633 -52.48062 33992 ft 396 kts 255°
2026-04-26 02:09 -24.78529 -52.53759 33994 ft 396 kts 255°
2026-04-26 02:10 -24.80423 -52.59453 33988 ft 396 kts 255°
2026-04-26 02:10 -24.82319 -52.65150 33988 ft 396 kts 255°
2026-04-26 02:11 -24.84213 -52.70842 33989 ft 396 kts 255°
2026-04-26 02:11 -24.86095 -52.76541 33990 ft 396 kts 255°
2026-04-26 02:12 -24.87971 -52.82241 33985 ft 396 kts 255°
2026-04-26 02:12 -24.89850 -52.87955 33785 ft 398 kts 255°
2026-04-26 02:12 -24.90798 -52.90840 32921 ft 403 kts 254°
2026-04-26 02:13 -24.91741 -52.93710 32524 ft 396 kts 254°
2026-04-26 02:13 -24.92676 -52.96542 32060 ft 392 kts 254°
2026-04-26 02:13 -24.93604 -52.99352 31592 ft 388 kts 254°
2026-04-26 02:13 -24.94522 -53.02129 31140 ft 384 kts 254°
2026-04-26 02:14 -24.95430 -53.04886 30683 ft 381 kts 254°
2026-04-26 02:14 -24.96327 -53.07621 30217 ft 378 kts 254°
2026-04-26 02:14 -24.97214 -53.10338 29727 ft 375 kts 254°
2026-04-26 02:14 -24.98092 -53.13033 29271 ft 371 kts 254°
2026-04-26 02:15 -24.98957 -53.15693 28818 ft 367 kts 254°
2026-04-26 02:15 -24.99815 -53.18331 28376 ft 364 kts 254°
2026-04-26 02:15 -25.00665 -53.20947 27944 ft 361 kts 254°
2026-04-26 02:15 -25.01506 -53.23534 27519 ft 358 kts 253°
2026-04-26 02:16 -25.02345 -53.26109 27100 ft 355 kts 253°
2026-04-26 02:16 -25.03179 -53.28663 26686 ft 353 kts 253°
2026-04-26 02:16 -25.04009 -53.31202 26272 ft 351 kts 253°
2026-04-26 02:16 -25.04835 -53.33732 25877 ft 350 kts 253°
2026-04-26 02:17 -25.05658 -53.36252 25498 ft 349 kts 253°
2026-04-26 02:17 -25.06476 -53.38762 25107 ft 347 kts 253°
2026-04-26 02:17 -25.07285 -53.41263 24725 ft 345 kts 253°
2026-04-26 02:17 -25.08086 -53.43744 24348 ft 343 kts 253°
2026-04-26 02:18 -25.08888 -53.46220 23969 ft 342 kts 253°
2026-04-26 02:18 -25.09684 -53.48679 23594 ft 340 kts 253°
2026-04-26 02:18 -25.10477 -53.51127 23170 ft 338 kts 253°
2026-04-26 02:18 -25.11264 -53.53556 22776 ft 334 kts 253°
2026-04-26 02:19 -25.12042 -53.55962 22394 ft 330 kts 253°
2026-04-26 02:19 -25.12808 -53.58327 22010 ft 326 kts 253°
2026-04-26 02:19 -25.13568 -53.60672 21627 ft 323 kts 253°
2026-04-26 02:19 -25.14319 -53.62989 21246 ft 319 kts 253°
2026-04-26 02:20 -25.15066 -53.65296 20797 ft 319 kts 253°
2026-04-26 02:20 -25.15809 -53.67599 20355 ft 318 kts 253°
2026-04-26 02:20 -25.16550 -53.69902 19903 ft 318 kts 253°
2026-04-26 02:20 -25.17288 -53.72204 19454 ft 319 kts 253°
2026-04-26 02:21 -25.18018 -53.74484 19005 ft 319 kts 253°
2026-04-26 02:21 -25.18768 -53.76824 18541 ft 320 kts 253°
2026-04-26 02:21 -25.19511 -53.79146 18043 ft 321 kts 253°
2026-04-26 02:21 -25.20243 -53.81435 17564 ft 320 kts 253°
2026-04-26 02:22 -25.20983 -53.83748 17099 ft 319 kts 253°
2026-04-26 02:22 -25.21823 -53.86009 16626 ft 320 kts 244°
2026-04-26 02:22 -25.23136 -53.88008 16167 ft 325 kts 230°
2026-04-26 02:22 -25.24903 -53.89594 15681 ft 332 kts 216°
2026-04-26 02:23 -25.26965 -53.90790 15196 ft 335 kts 212°
2026-04-26 02:23 -25.29047 -53.91958 14709 ft 336 kts 212°
2026-04-26 02:23 -25.31127 -53.93129 14222 ft 336 kts 212°
2026-04-26 02:23 -25.33207 -53.94302 13726 ft 336 kts 212°
2026-04-26 02:24 -25.35289 -53.95479 13197 ft 336 kts 213°
2026-04-26 02:24 -25.37360 -53.96652 12712 ft 334 kts 212°
2026-04-26 02:24 -25.39428 -53.97821 12224 ft 333 kts 212°
2026-04-26 02:24 -25.41491 -53.98988 11751 ft 332 kts 212°
2026-04-26 02:25 -25.43544 -54.00146 11266 ft 331 kts 212°
2026-04-26 02:25 -25.45596 -54.01302 10793 ft 330 kts 212°
2026-04-26 02:25 -25.47504 -54.02668 10319 ft 324 kts 225°
2026-04-26 02:25 -25.49004 -54.04448 10127 ft 309 kts 237°
2026-04-26 02:26 -25.50291 -54.06292 9994 ft 298 kts 236°
2026-04-26 02:26 -25.51546 -54.08063 9887 ft 288 kts 236°
2026-04-26 02:26 -25.52766 -54.09779 9678 ft 281 kts 236°
2026-04-26 02:26 -25.53966 -54.11477 9299 ft 280 kts 236°
2026-04-26 02:27 -25.55166 -54.13179 8939 ft 279 kts 237°
2026-04-26 02:27 -25.56357 -54.14873 8588 ft 279 kts 236°
2026-04-26 02:27 -25.57544 -54.16562 8256 ft 277 kts 236°
2026-04-26 02:27 -25.58722 -54.18237 7809 ft 274 kts 236°
2026-04-26 02:28 -25.59893 -54.19902 7195 ft 274 kts 236°
2026-04-26 02:28 -25.61059 -54.21563 6601 ft 272 kts 236°
2026-04-26 02:28 -25.62206 -54.23195 5998 ft 271 kts 236°
2026-04-26 02:28 -25.63388 -54.24858 5341 ft 272 kts 235°
2026-04-26 02:29 -25.64583 -54.26456 4731 ft 273 kts 234°
2026-04-26 02:29 -25.65809 -54.28058 4114 ft 273 kts 233°
2026-04-26 02:29 -25.67043 -54.29658 3476 ft 273 kts 233°
2026-04-26 02:29 -25.67794 -54.30787 3203 ft 264 kts 244°
2026-04-26 02:30 -25.68411 -54.33216 2975 ft 234 kts 272°
2026-04-26 02:30 -25.68215 -54.34897 2917 ft 210 kts 290°
2026-04-26 02:30 -25.67653 -54.36337 2851 ft 200 kts 298°
2026-04-26 02:30 -25.67053 -54.37716 2804 ft 197 kts 297°
2026-04-26 02:31 -25.66653 -54.38639 2747 ft 197 kts 297°
2026-04-26 02:31 -25.66073 -54.39980 2709 ft 185 kts 297°
2026-04-26 02:31 -25.65482 -54.41140 2587 ft 160 kts 309°
2026-04-26 02:31 -25.64787 -54.42035 2395 ft 148 kts 313°
2026-04-26 02:32 -25.63917 -54.43154 2123 ft 143 kts 312°
2026-04-26 02:32 -25.63480 -54.43715 2072 ft 143 kts 312°
2026-04-26 02:32 -25.62813 -54.44583 1647 ft 148 kts 311°
2026-04-26 02:32 -25.62147 -54.45438 1470 ft 146 kts 311°
2026-04-26 02:33 -25.61483 -54.46289 1283 ft 146 kts 311°
2026-04-26 02:33 -25.60818 -54.47139 1018 ft 153 kts 310°
2026-04-26 02:33 -25.60117 -54.48061 800 ft 150 kts 312°
2026-04-26 02:33 -25.59529 -54.48782 768 ft 77 kts 312°
2026-04-26 02:34 -25.59386 -54.48972 769 ft 21 kts 292°
2026-04-26 02:34 -25.59358 -54.49079 769 ft 5 kts 337°
2026-04-26 02:34 -25.59321 -54.49073 768 ft 6 kts 21°
2026-04-26 02:34 -25.59322 -54.49056 768 ft 2 kts 131°
2026-04-26 02:35 -25.59345 -54.49035 768 ft 12 kts 140°
2026-04-26 02:35 -25.59408 -54.49026 770 ft 5 kts 216°
2026-04-26 02:35 -25.59416 -54.49036 773 ft 6 kts 225°
2026-04-26 02:35 -25.59424 -54.49045 791 ft 0 kts 225°
2026-04-26 02:36 -25.59437 -54.49057 792 ft 0 kts 214°
2026-04-26 02:36 -25.59449 -54.49056 793 ft 5 kts 169°
2026-04-26 02:36 -25.59485 -54.49016 794 ft 9 kts 132°
2026-04-26 02:36 -25.59527 -54.48992 795 ft 4 kts 190°
2026-04-26 02:37 -25.59535 -54.48996 795 ft 0 kts 214°
2026-04-26 02:37 -25.59538 -54.49000 796 ft 0 kts 222°